| time (UTC) | temp F | wind direction | speed MPH | gust MPH | rain 1hr in | rain 24hr in | rain mn in | humidity % | barometer mb |
| 20260503184916 | 71 | 312 | 6.0 | 11.0 | 0.00 | 0.00 | 0.00 | 57 | |
| 20260503184414 | 70 | 308 | 8.0 | 9.0 | 0.00 | 0.00 | 0.00 | 57 | |
| 20260503183910 | 69 | 0 | 4.0 | 6.0 | 0.00 | 0.00 | 0.00 | 58 | |
| 20260503183407 | 69 | 336 | 8.0 | 11.0 | 0.00 | 0.00 | 0.00 | 56 | |
| 20260503182904 | 69 | 336 | 6.0 | 14.0 | 0.00 | 0.00 | 0.00 | 58 | |
| 20260503182403 | 69 | 321 | 11.0 | 12.0 | 0.00 | 0.00 | 0.00 | 57 | |
| 20260503181859 | 68 | 346 | 7.0 | 9.0 | 0.00 | 0.00 | 0.00 | 61 | |
| 20260503181356 | 68 | 322 | 9.0 | 11.0 | 0.00 | 0.00 | 0.00 | 59 | |
| 20260503180853 | 68 | 339 | 6.0 | 11.0 | 0.00 | 0.00 | 0.00 | 59 | |
| 20260503180351 | 68 | 337 | 6.0 | 7.0 | 0.00 | 0.00 | 0.00 | 60 | |
| 20260503175847 | 68 | 325 | 6.0 | 11.0 | 0.00 | 0.00 | 0.00 | 60 | |
| 20260503175345 | 68 | 346 | 6.0 | 10.0 | 0.00 | 0.00 | 0.00 | 60 | |
| 20260503174840 | 68 | 274 | 5.0 | 8.0 | 0.00 | 0.00 | 0.00 | 60 | |
| 20260503174339 | 68 | 334 | 6.0 | 10.0 | 0.00 | 0.00 | 0.00 | 61 | |
| 20260503173839 | 68 | 350 | 3.0 | 7.0 | 0.00 | 0.00 | 0.00 | 59 | |
| 20260503173336 | 68 | 327 | 8.0 | 10.0 | 0.00 | 0.00 | 0.00 | 58 | |
| 20260503172833 | 68 | 331 | 5.0 | 9.0 | 0.00 | 0.00 | 0.00 | 60 | |
| 20260503172331 | 67 | 301 | 7.0 | 7.0 | 0.00 | 0.00 | 0.00 | 60 | |
| 20260503171831 | 67 | 358 | 4.0 | 5.0 | 0.00 | 0.00 | 0.00 | 60 | |
| 20260503171329 | 66 | 311 | 4.0 | 6.0 | 0.00 | 0.00 | 0.00 | 62 | |
| 20260503170826 | 65 | 351 | 3.0 | 7.0 | 0.00 | 0.00 | 0.00 | 64 | |
| 20260503170322 | 65 | 350 | 6.0 | 8.0 | 0.00 | 0.00 | 0.00 | 63 | |
| 20260503150715 | 59 | 337 | 1.0 | 2.0 | 0.00 | 0.00 | 0.00 | 77 | |
| 20260503150211 | 59 | 8 | 2.0 | 4.0 | 0.00 | 0.00 | 0.00 | 77 | |
| 20260503140135 | 51 | 26 | 1.0 | 3.0 | 0.00 | 0.00 | 0.00 | 90 | |
| 20260503131104 | 50 | 17 | 3.0 | 4.0 | 0.00 | 0.00 | 0.00 | 91 | |
| 20260503130602 | 50 | 73 | 2.0 | 3.0 | 0.00 | 0.00 | 0.00 | 91 | |
| 20260503110452 | 52 | 5 | 3.0 | 4.0 | 0.00 | 0.00 | 0.00 | 89 | |
| 20260503090344 | 54 | 73 | 2.0 | 4.0 | 0.00 | 0.00 | 0.00 | 83 | |
| 20260503081311 | 55 | 347 | 2.0 | 4.0 | 0.00 | 0.00 | 0.00 | 82 | |
| 20260503080807 | 54 | 76 | 2.0 | 4.0 | 0.00 | 0.00 | 0.00 | 83 | |
| 20260503080305 | 54 | 10 | 3.0 | 6.0 | 0.00 | 0.00 | 0.00 | 83 | |
| 20260503072741 | 56 | 316 | 0.0 | 2.0 | 0.00 | 0.00 | 0.00 | 79 | |
| 20260503072238 | 57 | 28 | 2.0 | 3.0 | 0.00 | 0.00 | 0.00 | 78 | |
| 20260503071734 | 57 | 62 | 2.0 | 4.0 | 0.00 | 0.00 | 0.00 | 77 | |
| 20260503071231 | 57 | 10 | 2.0 | 3.0 | 0.00 | 0.00 | 0.00 | 77 | |
| 20260503070728 | 57 | 16 | 1.0 | 3.0 | 0.00 | 0.00 | 0.00 | 77 | |
| 20260503070226 | 57 | 5 | 2.0 | 4.0 | 0.00 | 0.00 | 0.00 | 78 | |
| 20260503060156 | 61 | 21 | 3.0 | 4.0 | 0.00 | 0.00 | 0.00 | 64 | |
| 20260503054643 | 62 | 17 | 3.0 | 4.0 | 0.00 | 0.00 | 0.00 | 63 | |
| 20260503054141 | 62 | 13 | 4.0 | 4.0 | 0.00 | 0.00 | 0.00 | 63 | |
| 20260503053638 | 61 | 2 | 4.0 | 4.0 | 0.00 | 0.00 | 0.00 | 64 | |
| 20260503053137 | 61 | 10 | 4.0 | 4.0 | 0.00 | 0.00 | 0.00 | 65 | |
| 20260503052633 | 62 | 19 | 2.0 | 4.0 | 0.00 | 0.00 | 0.00 | 64 | |
| 20260503052129 | 63 | 9 | 3.0 | 4.0 | 0.00 | 0.00 | 0.00 | 62 | |
| 20260503051625 | 63 | 356 | 2.0 | 3.0 | 0.00 | 0.00 | 0.00 | 60 | |
| 20260503051123 | 63 | 5 | 2.0 | 3.0 | 0.00 | 0.00 | 0.00 | 59 | |
| 20260503050619 | 63 | 0 | 2.0 | 2.0 | 0.00 | 0.00 | 0.00 | 59 | |
| 20260503050116 | 63 | 43 | 2.0 | 3.0 | 0.00 | 0.00 | 0.00 | 59 | |
| 20260503045614 | 64 | 14 | 2.0 | 2.0 | 0.00 | 0.00 | 0.00 | 58 | |
| 20260503045110 | 64 | 10 | 2.0 | 3.0 | 0.00 | 0.00 | 0.00 | 58 | |
| 20260503044607 | 64 | 7 | 2.0 | 2.0 | 0.00 | 0.00 | 0.00 | 57 | |
| 20260503044105 | 64 | 353 | 2.0 | 2.0 | 0.00 | 0.00 | 0.00 | 56 | |
| 20260503043600 | 64 | 22 | 2.0 | 2.0 | 0.00 | 0.00 | 0.00 | 56 | |
| 20260503043058 | 64 | 1 | 2.0 | 3.0 | 0.00 | 0.00 | 0.00 | 56 | |
| 20260503042554 | 65 | 0 | 3.0 | 3.0 | 0.00 | 0.00 | 0.00 | 56 | |
| 20260503042050 | 65 | 358 | 2.0 | 3.0 | 0.00 | 0.00 | 0.00 | 56 | |
| 20260503041547 | 65 | 351 | 2.0 | 4.0 | 0.00 | 0.00 | 0.00 | 56 | |
| 20260503041045 | 65 | 359 | 2.0 | 3.0 | 0.00 | 0.00 | 0.00 | 55 | |
| 20260503040542 | 65 | 349 | 2.0 | 3.0 | 0.00 | 0.00 | 0.00 | 55 | |
| 20260503040039 | 66 | 3 | 3.0 | 3.0 | 0.00 | 0.00 | 0.00 | 54 | |
| 20260503035536 | 66 | 0 | 2.0 | 4.0 | 0.00 | 0.00 | 0.00 | 53 | |
| 20260503035034 | 66 | 345 | 3.0 | 4.0 | 0.00 | 0.00 | 0.00 | 52 | |
| 20260503034531 | 66 | 341 | 4.0 | 5.0 | 0.00 | 0.00 | 0.00 | 52 | |
| 20260503034028 | 66 | 342 | 3.0 | 5.0 | 0.00 | 0.00 | 0.00 | 52 | |
| 20260503033525 | 67 | 325 | 2.0 | 3.0 | 0.00 | 0.00 | 0.00 | 52 | |
| 20260503033023 | 67 | 342 | 3.0 | 5.0 | 0.00 | 0.00 | 0.00 | 51 | |
| 20260503032521 | 67 | 348 | 2.0 | 5.0 | 0.00 | 0.00 | 0.00 | 51 | |
| 20260503032019 | 68 | 353 | 3.0 | 4.0 | 0.00 | 0.00 | 0.00 | 50 | |
| 20260503031516 | 68 | 310 | 2.0 | 4.0 | 0.00 | 0.00 | 0.00 | 50 | |
| 20260503031013 | 68 | 332 | 2.0 | 4.0 | 0.00 | 0.00 | 0.00 | 50 | |
| 20260503030509 | 68 | 0 | 3.0 | 6.0 | 0.00 | 0.00 | 0.00 | 49 | |
| 20260503030007 | 69 | 335 | 3.0 | 6.0 | 0.00 | 0.00 | 0.00 | 48 | |
| 20260503025503 | 69 | 344 | 3.0 | 5.0 | 0.00 | 0.00 | 0.00 | 47 | |
| 20260503025001 | 70 | 317 | 6.0 | 6.0 | 0.00 | 0.00 | 0.00 | 47 | |
| 20260503024457 | 71 | 20 | 5.0 | 5.0 | 0.00 | 0.00 | 0.00 | 46 | |
| 20260503023954 | 71 | 322 | 5.0 | 5.0 | 0.00 | 0.00 | 0.00 | 46 | |
| 20260503023451 | 72 | 358 | 3.0 | 6.0 | 0.00 | 0.00 | 0.00 | 45 | |
| 20260503022948 | 71 | 336 | 2.0 | 5.0 | 0.00 | 0.00 | 0.00 | 46 | |
| 20260503022443 | 72 | 312 | 6.0 | 7.0 | 0.00 | 0.00 | 0.00 | 45 | |
| 20260503021939 | 72 | 326 | 6.0 | 9.0 | 0.00 | 0.00 | 0.00 | 45 | |
| 20260503021436 | 73 | 321 | 4.0 | 6.0 | 0.00 | 0.00 | 0.00 | 44 | |
| 20260503020933 | 72 | 314 | 4.0 | 6.0 | 0.00 | 0.00 | 0.00 | 44 | |
| 20260503020431 | 73 | 321 | 7.0 | 8.0 | 0.00 | 0.00 | 0.00 | 46 | |
| 20260503015927 | 73 | 317 | 5.0 | 6.0 | 0.00 | 0.00 | 0.00 | 46 | |
| 20260503015424 | 72 | 310 | 7.0 | 9.0 | 0.00 | 0.00 | 0.00 | 46 | |
| 20260503014920 | 73 | 330 | 6.0 | 8.0 | 0.00 | 0.00 | 0.00 | 46 | |
| 20260503014417 | 73 | 313 | 5.0 | 6.0 | 0.00 | 0.00 | 0.00 | 47 | |
| 20260503013915 | 73 | 332 | 9.0 | 9.0 | 0.00 | 0.00 | 0.00 | 47 | |
| 20260503013412 | 73 | 321 | 5.0 | 8.0 | 0.00 | 0.00 | 0.00 | 48 | |
| 20260503012909 | 72 | 299 | 4.0 | 7.0 | 0.00 | 0.00 | 0.00 | 49 | |
| 20260503012407 | 72 | 277 | 7.0 | 11.0 | 0.00 | 0.00 | 0.00 | 48 | |
| 20260503011903 | 72 | 341 | 4.0 | 10.0 | 0.00 | 0.00 | 0.00 | 49 | |
| 20260503011400 | 72 | 357 | 8.0 | 10.0 | 0.00 | 0.00 | 0.00 | 49 | |
| 20260503010856 | 72 | 318 | 10.0 | 13.0 | 0.00 | 0.00 | 0.00 | 48 | |
| 20260503010353 | 72 | 312 | 9.0 | 12.0 | 0.00 | 0.00 | 0.00 | 48 | |
| 20260503005850 | 72 | 328 | 6.0 | 8.0 | 0.00 | 0.00 | 0.00 | 49 | |
| 20260503005348 | 73 | 342 | 5.0 | 8.0 | 0.00 | 0.00 | 0.00 | 48 | |
| 20260503004844 | 72 | 312 | 7.0 | 10.0 | 0.00 | 0.00 | 0.00 | 49 | |
| 20260503004342 | 72 | 312 | 8.0 | 12.0 | 0.00 | 0.00 | 0.00 | 49 | |
| 20260503003839 | 73 | 333 | 6.0 | 11.0 | 0.00 | 0.00 | 0.00 | 48 | |
| 20260503003336 | 73 | 337 | 6.0 | 11.0 | 0.00 | 0.00 | 0.00 | 49 | |
| 20260503002833 | 72 | 318 | 6.0 | 12.0 | 0.00 | 0.00 | 0.00 | 49 | |
| 20260503002330 | 72 | 332 | 7.0 | 12.0 | 0.00 | 0.00 | 0.00 | 50 | |
| 20260503001826 | 72 | 331 | 6.0 | 13.0 | 0.00 | 0.00 | 0.00 | 50 | |
| 20260503001322 | 72 | 304 | 12.0 | 14.0 | 0.00 | 0.00 | 0.00 | 51 | |
| 20260503000820 | 71 | 322 | 11.0 | 16.0 | 0.00 | 0.00 | 0.00 | 51 | |
| 20260503000319 | 71 | 336 | 13.0 | 17.0 | 0.00 | 0.00 | 0.00 | 52 | |
| 20260502235814 | 71 | 351 | 9.0 | 15.0 | 0.00 | 0.00 | 0.00 | 52 | |
| 20260502235312 | 71 | 305 | 15.0 | 16.0 | 0.00 | 0.00 | 0.00 | 51 | |
| 20260502234808 | 72 | 335 | 12.0 | 12.0 | 0.00 | 0.00 | 0.00 | 51 | |
| 20260502234306 | 72 | 315 | 9.0 | 11.0 | 0.00 | 0.00 | 0.00 | 53 | |
| 20260502233801 | 72 | 317 | 10.0 | 14.0 | 0.00 | 0.00 | 0.00 | 53 | |
| 20260502233258 | 72 | 326 | 8.0 | 9.0 | 0.00 | 0.00 | 0.00 | 54 | |
| 20260502232755 | 72 | 335 | 9.0 | 11.0 | 0.00 | 0.00 | 0.00 | 53 | |
| 20260502232251 | 72 | 286 | 9.0 | 13.0 | 0.00 | 0.00 | 0.00 | 53 | |
| 20260502231748 | 72 | 293 | 11.0 | 14.0 | 0.00 | 0.00 | 0.00 | 54 | |
| 20260502231246 | 72 | 314 | 9.0 | 12.0 | 0.00 | 0.00 | 0.00 | 54 | |
| 20260502230744 | 72 | 336 | 5.0 | 14.0 | 0.00 | 0.00 | 0.00 | 54 | |
| 20260502230242 | 72 | 306 | 13.0 | 19.0 | 0.00 | 0.00 | 0.00 | 55 | |
| 20260502225738 | 71 | 327 | 8.0 | 11.0 | 0.00 | 0.00 | 0.00 | 55 | |
| 20260502225235 | 71 | 312 | 13.0 | 15.0 | 0.00 | 0.00 | 0.00 | 55 | |
| 20260502224731 | 71 | 324 | 9.0 | 16.0 | 0.00 | 0.00 | 0.00 | 55 | |
| 20260502224228 | 71 | 330 | 10.0 | 13.0 | 0.00 | 0.00 | 0.00 | 55 | |
| 20260502223726 | 71 | 326 | 11.0 | 13.0 | 0.00 | 0.00 | 0.00 | 56 | |
| 20260502223223 | 71 | 309 | 7.0 | 11.0 | 0.00 | 0.00 | 0.00 | 57 | |
| 20260502222721 | 71 | 321 | 11.0 | 13.0 | 0.00 | 0.00 | 0.00 | 55 | |
| 20260502222217 | 70 | 327 | 9.0 | 13.0 | 0.00 | 0.00 | 0.00 | 56 | |
| 20260502221714 | 71 | 301 | 10.0 | 13.0 | 0.00 | 0.00 | 0.00 | 56 | |
| 20260502221210 | 70 | 327 | 7.0 | 12.0 | 0.00 | 0.00 | 0.00 | 57 | |
| 20260502220706 | 70 | 329 | 10.0 | 13.0 | 0.00 | 0.00 | 0.00 | 56 | |
| 20260502220203 | 71 | 335 | 8.0 | 12.0 | 0.00 | 0.00 | 0.00 | 55 | |
| 20260502215700 | 69 | 2 | 8.0 | 13.0 | 0.00 | 0.00 | 0.00 | 57 | |
| 20260502215156 | 69 | 328 | 10.0 | 14.0 | 0.00 | 0.00 | 0.00 | 57 | |
| 20260502214654 | 69 | 318 | 12.0 | 13.0 | 0.00 | 0.00 | 0.00 | 56 | |
| 20260502214151 | 70 | 327 | 8.0 | 13.0 | 0.00 | 0.00 | 0.00 | 56 | |
| 20260502213648 | 71 | 334 | 9.0 | 13.0 | 0.00 | 0.00 | 0.00 | 55 | |
| 20260502213145 | 70 | 272 | 11.0 | 16.0 | 0.00 | 0.00 | 0.00 | 56 | |
| 20260502212644 | 70 | 274 | 8.0 | 13.0 | 0.00 | 0.00 | 0.00 | 56 | |
| 20260502212142 | 70 | 278 | 3.0 | 10.0 | 0.00 | 0.00 | 0.00 | 56 | |
| 20260502211637 | 70 | 330 | 12.0 | 13.0 | 0.00 | 0.00 | 0.00 | 55 | |
| 20260502211135 | 69 | 267 | 7.0 | 10.0 | 0.00 | 0.00 | 0.00 | 58 | |
| 20260502210632 | 69 | 309 | 14.0 | 16.0 | 0.00 | 0.00 | 0.00 | 58 | |
| 20260502210129 | 69 | 291 | 12.0 | 14.0 | 0.00 | 0.00 | 0.00 | 58 | |
| 20260502205626 | 69 | 304 | 10.0 | 15.0 | 0.00 | 0.00 | 0.00 | 58 | |
| 20260502205122 | 69 | 341 | 8.0 | 11.0 | 0.00 | 0.00 | 0.00 | 59 | |
| 20260502204619 | 68 | 308 | 8.0 | 15.0 | 0.00 | 0.00 | 0.00 | 60 | |
| 20260502204117 | 68 | 320 | 10.0 | 12.0 | 0.00 | 0.00 | 0.00 | 60 | |
| 20260502203614 | 68 | 330 | 9.0 | 16.0 | 0.00 | 0.00 | 0.00 | 61 | |
| 20260502203112 | 67 | 320 | 9.0 | 11.0 | 0.00 | 0.00 | 0.00 | 61 | |
| 20260502202607 | 67 | 344 | 9.0 | 16.0 | 0.00 | 0.00 | 0.00 | 62 | |
| 20260502202105 | 67 | 335 | 10.0 | 12.0 | 0.00 | 0.00 | 0.00 | 63 | |
| 20260502201601 | 67 | 287 | 15.0 | 17.0 | 0.00 | 0.00 | 0.00 | 63 | |
| 20260502201058 | 67 | 266 | 10.0 | 15.0 | 0.00 | 0.00 | 0.00 | 64 | |
| 20260502200553 | 66 | 333 | 8.0 | 10.0 | 0.00 | 0.00 | 0.00 | 65 | |
| 20260502200051 | 66 | 342 | 7.0 | 13.0 | 0.00 | 0.00 | 0.00 | 67 | |
| 20260502195549 | 66 | 347 | 10.0 | 11.0 | 0.00 | 0.00 | 0.00 | 66 | |
| 20260502195045 | 65 | 321 | 9.0 | 12.0 | 0.00 | 0.00 | 0.00 | 67 | |
| 20260502194542 | 66 | 323 | 7.0 | 12.0 | 0.00 | 0.00 | 0.00 | 67 | |
| 20260502194038 | 65 | 305 | 9.0 | 13.0 | 0.00 | 0.00 | 0.00 | 68 | |
| 20260502193536 | 64 | 292 | 6.0 | 12.0 | 0.00 | 0.00 | 0.00 | 70 | |
| 20260502193032 | 64 | 286 | 6.0 | 17.0 | 0.00 | 0.00 | 0.00 | 70 | |
| 20260502192527 | 64 | 337 | 5.0 | 11.0 | 0.00 | 0.00 | 0.00 | 71 | |
| 20260502192025 | 64 | 320 | 8.0 | 13.0 | 0.00 | 0.00 | 0.00 | 71 | |
| 20260502191522 | 64 | 306 | 8.0 | 12.0 | 0.00 | 0.00 | 0.00 | 71 | |
| 20260502191020 | 64 | 336 | 3.0 | 10.0 | 0.00 | 0.00 | 0.00 | 72 | |
| 20260502190517 | 64 | 342 | 5.0 | 12.0 | 0.00 | 0.00 | 0.00 | 70 | |
| 20260502190014 | 64 | 335 | 8.0 | 13.0 | 0.00 | 0.00 | 0.00 | 70 | |
| 20260502185509 | 64 | 354 | 6.0 | 11.0 | 0.00 | 0.00 | 0.00 | 71 |